Location: Dehesa de la Cepeda
(40.6574°N, 4.3013°W)
Time: 19:55:57
(UTC+00:00)

Cosmos 1151 Rocket - Pass Details

Date: 05 July 2020
Orbit: 591 x 617 km, 82.5° (Epoch: 05 August)

Event Time Altitude Azimuth Distance (km) Brightness Sun altitude
Rises 23:34:07 0° 357° (N) 2,872 7.8 -25.7°
Reaches altitude 10° 23:36:24 10° 3° (N) 1,960 6.6 -25.8°
Enters shadow 23:40:02 47° 51° (NE) 804 3.7 -25.9°
